Weather History for DeLand, FL

Change the Weather History Date:

Wednesday, March 19, 2014

  Actual Average Record
Temperature  
Mean Temperature 64 °F -  
Max Temperature 73 °F 77 °F 84 °F (2013)
Min Temperature 55 °F 51 °F 55 °F (2014)
Degree Days  
Heating Degree Days 1    
Growing Degree Days 14 (Base 50)    
Moisture  
Dew Point 55 °F    
Average Humidity 80    
Maximum Humidity 100    
Minimum Humidity 50    
Precipitation  
Precipitation 0.00 in - - ()
Sea Level Pressure  
Sea Level Pressure 30.09 in    
Wind  
Wind Speed 5 mph (NNE)    
Max Wind Speed 14 mph    
Max Gust Speed -    
Visibility 10 miles    
Events      
Averages and records for this station are not official NWS values.
T = Trace of Precipitation, MM = Missing Value Source: NWS Daily Summary

Daily Weather History Graph

Daily Weather History Graph

Search for Another Location

Airport:

Trip Planner

Search our weather history database for the weather conditions in past years. The results will help you decide how hot, cold, wet, or windy it might be!

Date:

Astronomy

Mar. 19, 2014 Rise Set
Actual Time 7:30 AM EDT 7:35 PM EDT
Civil Twilight 7:06 AM EDT 7:59 PM EDT
Nautical Twilight 6:39 AM EDT 8:27 PM EDT
Astronomical Twilight 6:11 AM EDT 8:54 PM EDT
Moon 10:36 PM EDT (3/19) 9:09 AM EDT (3/19)
Length of Visible Light 12h 53m
Length of Day
12h 05m
Waning Gibbous, 91% of the Moon is Illuminated
Mar 19
Waning Gibbous
Mar 23
Last Quarter
Mar 30
New
Apr 7
First Quarter
Apr 15
Full

Hourly Weather History & Observations

Time (EDT) Temp. Dew Point Humidity Pressure Visibility Wind Dir Wind Speed Gust Speed Precip Events Conditions
12:15 AM 59.0 °F 53.6 °F 82% 30.09 in 10.0 mi NE 4.6 mph - N/A   Overcast
12:35 AM 59.0 °F 53.6 °F 82% 30.10 in 10.0 mi NW 3.5 mph - N/A   Overcast
12:55 AM 59.0 °F 53.6 °F 82% 30.09 in 10.0 mi NNE 4.6 mph - N/A   Overcast
1:15 AM 59.0 °F 53.6 °F 82% 30.09 in 10.0 mi North 4.6 mph - N/A   Overcast
1:35 AM 57.2 °F 53.6 °F 88% 30.09 in 10.0 mi North 4.6 mph - N/A   Overcast
1:55 AM 57.2 °F 53.6 °F 88% 30.08 in 10.0 mi North 3.5 mph - N/A   Overcast
2:15 AM 57.2 °F 53.6 °F 88% 30.08 in 10.0 mi NNW 4.6 mph - N/A   Overcast
2:35 AM 57.2 °F 53.6 °F 88% 30.08 in 10.0 mi NNW 4.6 mph - N/A   Overcast
2:55 AM 57.2 °F 53.6 °F 88% 30.09 in 10.0 mi WNW 4.6 mph - N/A   Overcast
3:15 AM 57.2 °F 53.6 °F 88% 30.08 in 10.0 mi NNW 4.6 mph - N/A   Overcast
3:35 AM 57.2 °F 55.4 °F 94% 30.07 in 10.0 mi North 6.9 mph - N/A   Overcast
3:55 AM 57.2 °F 53.6 °F 88% 30.06 in 10.0 mi North 5.8 mph - N/A   Overcast
4:15 AM 57.2 °F 55.4 °F 94% 30.06 in 10.0 mi NNW 5.8 mph - N/A   Overcast
4:35 AM 57.2 °F 53.6 °F 88% 30.06 in 10.0 mi North 4.6 mph - N/A   Overcast
4:55 AM 57.2 °F 53.6 °F 88% 30.06 in 10.0 mi North 3.5 mph - N/A   Mostly Cloudy
5:15 AM 55.4 °F 53.6 °F 94% 30.07 in 10.0 mi Calm Calm - N/A   Overcast
5:35 AM 55.4 °F 53.6 °F 94% 30.07 in 10.0 mi Calm Calm - N/A   Overcast
5:55 AM 55.4 °F 53.6 °F 94% 30.07 in 10.0 mi NNE 3.5 mph - N/A   Mostly Cloudy
6:15 AM 55.4 °F 53.6 °F 94% 30.08 in 10.0 mi North 3.5 mph - N/A   Overcast
6:35 AM 55.4 °F 53.6 °F 94% 30.09 in 10.0 mi NNW 5.8 mph - N/A   Overcast
6:55 AM 55.4 °F 55.4 °F 100% 30.10 in 7.0 mi NNW 6.9 mph - N/A   Overcast
7:15 AM 55.4 °F 53.6 °F 94% 30.11 in 8.0 mi North 8.1 mph - N/A   Overcast
7:35 AM 55.4 °F 55.4 °F 100% 30.11 in 9.0 mi NNW 5.8 mph - N/A   Overcast
7:55 AM 55.4 °F 55.4 °F 100% 30.11 in 9.0 mi North 5.8 mph - N/A   Overcast
8:15 AM 55.4 °F 55.4 °F 100% 30.11 in 9.0 mi North 5.8 mph - N/A   Overcast
8:35 AM 55.4 °F 55.4 °F 100% 30.12 in 10.0 mi North 6.9 mph - N/A   Overcast
8:55 AM 57.2 °F 55.4 °F 94% 30.13 in 10.0 mi North 3.5 mph - N/A   Mostly Cloudy
9:15 AM 59.0 °F 55.4 °F 88% 30.13 in 10.0 mi North 6.9 mph - N/A   Partly Cloudy
9:35 AM 60.8 °F 55.4 °F 82% 30.13 in 10.0 mi North 6.9 mph - N/A   Clear
9:55 AM 62.6 °F 55.4 °F 77% 30.14 in 10.0 mi NNE 6.9 mph - N/A   Scattered Clouds
10:15 AM 62.6 °F 55.4 °F 77% 30.14 in 10.0 mi NE 6.9 mph - N/A   Scattered Clouds
10:35 AM 64.4 °F 55.4 °F 73% 30.15 in 10.0 mi NE 4.6 mph - N/A   Partly Cloudy
10:55 AM 64.4 °F 55.4 °F 73% 30.15 in 10.0 mi North 3.5 mph - N/A   Partly Cloudy
11:15 AM 64.4 °F 55.4 °F 73% 30.15 in 10.0 mi NNE 3.5 mph - N/A   Clear
11:35 AM 66.2 °F 55.4 °F 68% 30.15 in 10.0 mi Calm Calm - N/A   Clear
11:55 AM 68.0 °F 57.2 °F 68% 30.15 in 10.0 mi Calm Calm - N/A   Clear
12:15 PM 68.0 °F 55.4 °F 64% 30.14 in 10.0 mi Calm Calm - N/A   Clear
12:35 PM 68.0 °F 55.4 °F 64% 30.13 in 10.0 mi NNE 3.5 mph - N/A   Partly Cloudy
12:55 PM 69.8 °F 55.4 °F 60% 30.13 in 10.0 mi Calm Calm - N/A   Scattered Clouds
1:15 PM 71.6 °F 55.4 °F 57% 30.12 in 10.0 mi Calm Calm - N/A   Scattered Clouds
1:35 PM 71.6 °F 55.4 °F 57% 30.11 in 10.0 mi Calm Calm - N/A   Scattered Clouds
1:55 PM 71.6 °F 55.4 °F 57% 30.10 in 10.0 mi WNW 4.6 mph - N/A   Mostly Cloudy
2:15 PM 71.6 °F 53.6 °F 53% 30.09 in 10.0 mi Calm Calm - N/A   Overcast
2:35 PM 71.6 °F 53.6 °F 53% 30.09 in 10.0 mi NNE 3.5 mph - N/A   Overcast
2:55 PM 73.4 °F 53.6 °F 50% 30.09 in 10.0 mi Calm Calm - N/A   Overcast
3:15 PM 73.4 °F 59.0 °F 61% 30.08 in 10.0 mi ENE 13.8 mph - N/A   Mostly Cloudy
3:35 PM 71.6 °F 57.2 °F 60% 30.07 in 10.0 mi NE 10.4 mph - N/A   Mostly Cloudy
3:55 PM 73.4 °F 57.2 °F 57% 30.07 in 10.0 mi NNE 6.9 mph - N/A   Scattered Clouds
4:15 PM 73.4 °F 57.2 °F 57% 30.07 in 10.0 mi NE 6.9 mph - N/A   Scattered Clouds
4:35 PM 71.6 °F 57.2 °F 60% 30.07 in 10.0 mi NE 8.1 mph - N/A   Scattered Clouds
4:55 PM 71.6 °F 57.2 °F 60% 30.06 in 10.0 mi NE 4.6 mph - N/A   Scattered Clouds
5:15 PM 71.6 °F 57.2 °F 60% 30.06 in 10.0 mi NE 9.2 mph - N/A   Clear
5:35 PM 71.6 °F 57.2 °F 60% 30.06 in 10.0 mi NNE 6.9 mph - N/A   Clear
5:55 PM 71.6 °F 57.2 °F 60% 30.07 in 10.0 mi NE 9.2 mph - N/A   Clear
6:15 PM 68.0 °F 57.2 °F 68% 30.08 in 10.0 mi ENE 11.5 mph - N/A   Clear
6:35 PM 68.0 °F 57.2 °F 68% 30.07 in 10.0 mi NE 10.4 mph - N/A   Clear
6:55 PM 66.2 °F 57.2 °F 73% 30.07 in 10.0 mi ENE 11.5 mph - N/A   Clear
7:15 PM 64.4 °F 57.2 °F 77% 30.07 in 10.0 mi NE 9.2 mph - N/A   Clear
7:35 PM 62.6 °F 55.4 °F 77% 30.06 in 10.0 mi NE 8.1 mph - N/A   Clear
7:55 PM 62.6 °F 55.4 °F 77% 30.08 in 10.0 mi NE 5.8 mph - N/A   Clear
8:15 PM 60.8 °F 55.4 °F 82% 30.09 in 10.0 mi NE 5.8 mph - N/A   Clear
8:35 PM 59.0 °F 55.4 °F 88% 30.09 in 10.0 mi NE 3.5 mph - N/A   Clear
8:55 PM 59.0 °F 55.4 °F 88% 30.09 in 10.0 mi ENE 5.8 mph - N/A   Clear
9:15 PM 59.0 °F 55.4 °F 88% 30.09 in 10.0 mi NE 3.5 mph - N/A   Clear
9:35 PM 59.0 °F 55.4 °F 88% 30.09 in 10.0 mi NNE 3.5 mph - N/A   Clear
9:55 PM 57.2 °F 55.4 °F 94% 30.10 in 10.0 mi Calm Calm - N/A   Clear
10:15 PM 57.2 °F 55.4 °F 94% 30.09 in 10.0 mi Calm Calm - N/A   Clear
10:35 PM 57.2 °F 55.4 °F 94% 30.09 in 10.0 mi Calm Calm - N/A   Clear
10:55 PM 57.2 °F 55.4 °F 94% 30.09 in 10.0 mi Calm Calm - N/A   Clear
11:15 PM 57.2 °F 55.4 °F 94% 30.10 in 10.0 mi Calm Calm - N/A   Clear
11:35 PM 57.2 °F 55.4 °F 94% 30.11 in 10.0 mi Calm Calm - N/A   Clear
11:55 PM 55.4 °F 55.4 °F 100% 30.10 in 10.0 mi Calm Calm - N/A   Clear